Weather History for Eau Claire, WI

Change the Weather History Date:

Sunday, January 6, 2013

  Actual Average Record
Temperature  
Mean Temperature 16 °F 14 °F  
Max Temperature 22 °F 23 °F 48 °F (1933)
Min Temperature 10 °F 6 °F -32 °F (1912)
Degree Days  
Heating Degree Days 49 51  
Month to date heating degree days 310 301  
Since 1 July heating degree days 3337 3477  
Cooling Degree Days 0 0  
Month to date cooling degree days 0 0  
Year to date cooling degree days 0 0  
Moisture  
Dew Point 12 °F    
Average Humidity 73    
Maximum Humidity 84    
Minimum Humidity 62    
Precipitation  
Precipitation 0.00 in 0.02 in 0.73 in (1932)
Month to date precipitation T 0.16  
Year to date precipitation T 0.16  
Snow  
Snow 0.00 in 0.40 in 7.20 in (1980)
Month to date snowfall 0.1 2.2  
Since 1 July snowfall 21.9 18.0  
Snow Depth 4.00 in    
Sea Level Pressure  
Sea Level Pressure 30.14 in    
Wind  
Wind Speed 5 mph (WSW)    
Max Wind Speed 14 mph    
Max Gust Speed 18 mph    
Visibility 9 miles    
Events      
T = Trace of Precipitation, MM = Missing Value Source: NWS Daily Summary

Daily Weather History Graph

Daily Weather History Graph

Search for Another Location

Airport:

Trip Planner

Search our weather history database for the weather conditions in past years. The results will help you decide how hot, cold, wet, or windy it might be!

Date:

Astronomy

Jan. 06, 2013 Rise Set
Actual Time 7:43 AM CST 4:40 PM CST
Civil Twilight 7:10 AM CST 5:14 PM CST
Nautical Twilight 6:33 AM CST 5:50 PM CST
Astronomical Twilight 5:57 AM CST 6:26 PM CST
Moon 1:52 AM CST (1/6) 12:13 PM CST (1/6)
Length of Visible Light 10h 03m
Length of Day
8h 57m
Waning Crescent, 33% of the Moon is Illuminated
Jan 6
Waning Crescent
Jan 11
New
Jan 18
First Quarter
Jan 26
Full
Feb 3
Last Quarter

Hourly Weather History & Observations

Time (CST) Temp. Windchill Dew Point Humidity Pressure Visibility Wind Dir Wind Speed Gust Speed Precip Events Conditions
12:16 AM 15.8 °F 10.2 °F 10.4 °F 79% 29.92 in 6.0 mi SW 3.5 mph - N/A   Haze
12:56 AM 18.0 °F 9.8 °F 12.0 °F 78% 29.97 in 6.0 mi WSW 5.8 mph - N/A   Haze
1:08 AM 17.6 °F 9.3 °F 12.2 °F 79% 29.93 in 6.0 mi WSW 5.8 mph - N/A   Haze
2:56 AM 21.0 °F 13.4 °F 15.1 °F 78% 30.02 in 7.0 mi WNW 5.8 mph - N/A   Overcast
3:56 AM 21.9 °F 14.5 °F 17.1 °F 82% 30.03 in 8.0 mi WNW 5.8 mph - N/A   Overcast
4:56 AM 21.9 °F 13.4 °F 17.1 °F 82% 30.04 in 8.0 mi WNW 6.9 mph - N/A   Overcast
5:14 AM 21.2 °F 12.6 °F 15.8 °F 80% 30.01 in 8.0 mi West 6.9 mph - N/A   Overcast
5:56 AM 21.0 °F 12.4 °F 17.1 °F 85% 30.08 in 10.0 mi West 6.9 mph - N/A   Overcast
6:56 AM 21.0 °F 12.4 °F 16.0 °F 81% 30.12 in 10.0 mi NW 6.9 mph - N/A   Overcast
7:56 AM 19.9 °F 14.9 °F 14.0 °F 78% 30.15 in 10.0 mi NNW 3.5 mph - N/A   Mostly Cloudy
8:56 AM 19.0 °F 12.3 °F 14.0 °F 81% 30.18 in 10.0 mi NW 4.6 mph - N/A   Overcast
9:56 AM 19.9 °F 11.1 °F 12.9 °F 74% 30.22 in 10.0 mi NNW 6.9 mph - N/A   Overcast
10:56 AM 19.9 °F - 12.9 °F 74% 30.21 in 10.0 mi Calm Calm - N/A   Partly Cloudy
11:56 AM 21.0 °F 12.4 °F 12.9 °F 71% 30.21 in 10.0 mi West 6.9 mph - N/A   Clear
12:56 PM 19.9 °F 10.1 °F 12.0 °F 71% 30.20 in 10.0 mi WSW 8.1 mph - N/A   Clear
2:56 PM 21.0 °F 12.4 °F 10.9 °F 65% 30.22 in 10.0 mi West 6.9 mph - N/A   Clear
3:56 PM 21.0 °F 13.4 °F 10.0 °F 63% 30.24 in 10.0 mi WSW 5.8 mph - N/A   Clear
4:56 PM 19.9 °F 14.9 °F 10.0 °F 65% 30.22 in 10.0 mi SW 3.5 mph - N/A   Clear
5:56 PM 17.1 °F 11.7 °F 9.0 °F 71% 30.23 in 10.0 mi SSW 3.5 mph - N/A   Clear
6:56 PM 12.9 °F 3.8 °F 8.1 °F 81% 30.24 in 10.0 mi SSW 5.8 mph - N/A   Clear
7:56 PM 15.1 °F 6.4 °F 9.0 °F 77% 30.23 in 10.0 mi SSW 5.8 mph - N/A   Clear
8:56 PM 12.9 °F - 8.1 °F 81% 30.22 in 10.0 mi Calm Calm - N/A   Clear
9:56 PM 10.9 °F 4.7 °F 6.1 °F 81% 30.20 in 10.0 mi South 3.5 mph - N/A   Clear
10:56 PM 12.9 °F 3.8 °F 6.1 °F 74% 30.18 in 10.0 mi South 5.8 mph - N/A   Clear
11:56 PM 12.0 °F 5.9 °F 6.1 °F 77% 30.16 in 10.0 mi South 3.5 mph - N/A   Clear